sat.trackr.live / text

‹ back to catalog

STARLINK-33975

NORAD 63802 · 2025-091AC

PAYLOAD ACTIVE UNKNOWN

§ Identity

Operator
Country
US
Launch date
2025-05-02
Launch site
AFETR
Launch vehicle
Mass (kg)
RCS (m²)

Purposes: comms

External: N2YO · Heavens-Above · Gunter

§ Orbital elements

Epoch: 2026-09-20T15:48:08.758080Z

Period
94.27 min
Inclination
43.0024°
Eccentricity
0.0000737
Mean motion
15.27582267 rev/d
Perigee alt
482.5 km
Apogee alt
483.5 km
Semi-major
6,861.2 km
B*
3.4429e-4
RAAN
31.1375°
Arg perigee
276.5724°
Mean anomaly
83.5044°
Rev number
7,883

§ Raw data

STARLINK-339751 63802U 25091AC  26263.65843470  .00009224  00000+0  34429-3 0  99932 63802  43.0024  31.1375 0000737 276.5724  83.5044 15.27582267 78839

JSON: /api/v1/satellites/63802 · /tle

For live sub-satellite position, see the globe view (requires WebGL).

§ Visibility from observer

Set your observer location to see the next 7 days of passes ≥ 10°. The values pass through the URL so the page stays shareable.

No JS? Fill the form by hand. The geolocation button needs JavaScript.